Terminal Aerodrome Forecast
Issued by NWS

Home | Current Version | Previous Version | Text Only | Print | Product List | Glossary On
Versions: 1 2 3 4 5 6 7 8 9 10 11 12 13
000
FTAK31 PAJN 252320
TAFAGY
TAF
PAGY 252320Z 2600/2624 21018G28KT P6SM VCSH FEW040 OVC080
     FM260400 21012KT P6SM VCSH SCT030 OVC050
     FM261200 21008KT P6SM -RA FEW015 OVC030
      AMD LTD TO CLD VIS AND WIND=

USA.gov is the U.S. government's official web portal to all federal, state and local government web resources and services.